STARLINK-3807, 52353

Orbit data source: Space-Track

STARLINK-3807, 52353 is a payload satellite owned by SpaceX/Seattle (US) in LEO that was launched on Fri, 29 Apr 2022 UTC via an FALCON 9 launch vehicle from the Air Force Eastern Test Range (AFETR). Payload-class satellites include a variety of spacecraft equipped with specific instruments for various scientific and technological missions. These include communications satellites like Starlink; space stations such as the ISS; scientific satellites like the Hubble; Earth observation satellites from companies like Planet Labs, Umbra, and HawkEye 360; GPS; miniature CubeSats for education and research; and military/defense satellites.

Loading next visibility...
Identifier
52353, 2022-045Y
Orbit
LEO
Country
Flag of USUS
Related business
Manufacturer
SpaceX/Seattle
Mission
Operational Commercial Communications
Bus & Motor
STARLINK, Unknown motor
Mass
297 kg wet, ~275 kg dry
Launch date (UTC)
2022-04-29 (4 years ago)
Launch vehicle
FALCON 9
Launch site
Air Force Eastern Test Range (AFETR)
Object type
Payload
Rocket body
Debris
Shape & HBR
Box + 1 Pan, 10.1 m
Radar Cross Section
11.087 m², Large (>1 m²)

Expand to show TLE details & history
Last TLE update: 8 hours ago

TLE from 8 hours ago
0 STARLINK-3807
1 52353U 22045Y   26119.89619661  .00000523  00000-0  50942-4 0  9990
2 52353  53.2186 329.2478 0001142 100.0795 260.0326 15.08834339223516
Epoch: 2026-04-29T21:30Z
TLE epoch observation values (Epoch: 2026-04-29T21:30:31.387Z)
Latitude
-0.00001°
Longitude
148.76643°
Altitude
540.795 km
Speed
7.593 km/s
True Right ascension
21h 56m 59s
True Declination
0° 00' 00"
Sunlit
Object was in daylight at epoch
Visualization orbit readout
Latitude
Unknown
Longitude
Unknown
Altitude
Unknown
Speed
Unknown
Apparent Right ascension
Unknown
Apparent Declination
Unknown
Sunlit
N/A
Visualization observer readout
Local Sidereal Time
12:59:36
Azimuth
Unknown
Elevation
Unknown
Doppler factor
Unknown
Orbital elements
Apogee altitude
540.795 km
Perigee altitude
539.215 km
Semi-major axis
6,918.142 km
Eccentricity
0.00011
Inclination
53.2186°
RAAN
329.2478°
Arg. of periapsis
100.0795°
True anomaly
260.01971°
Mean anomaly
260.0326°
Eccentric anomaly
260.02616°
Mean motion
3.77189 °/min
Orbital period
95.44 mins
BSTAR
0.000050942
Loading maneuver chart data...
Computing Atmospheric mass density...
Loading historical data...
Loading historical data...
Loading historical data...
Loading historical data...
Loading historical data...
Loading historical data...
Loading historical data...

Documentation

Showing up to 5 results
|